Wind_Speed
13 14 16 19 21 24 25 26 27 28 28 27 27 28 27 27 26 25 25 26 26 26 25 25 25 24 24 23 23 22 22 23 23 24 25 25 25 26 27 29 30 31 31 31
12 14 16 18 20 21 22 24 26 28 29 28 28 28 28 28 28 27 26 26 27 28 27 27 27 27 26 26 26 26 26 27 27 28 28 29 30 30 31 32 33 34 34 34
12 15 16 17 19 20 20 22 24 27 28 28 28 29 29 29 29 28 28 28 28 29 29 29 29 29 29 29 29 29 30 30 31 30 31 31 32 32 34 35 34 34 36 36
12 14 16 16 17 19 19 21 23 25 24 24 27 25 30 30 30 30 30 29 29 29 30 30 31 31 31 31 31 31 32 33 33 32 33 34 35 35 35 35 35 35 35 36
11 13 14 15 16 18 19 20 22 23 24 24 25 24 27 30 29 30 30 30 30 30 30 32 32 33 33 33 32 33 33 34 35 35 36 36 37 37 36 37 37 38 39 39
9 10 11 13 14 16 18 18 19 21 21 22 24 23 24 28 29 29 29 30 30 30 30 31 33 34 34 34 34 35 36 36 36 36 37 37 37 38 38 39 39 40 41 41
7 8 9 11 11 13 15 16 15 15 17 19 24 24 26 27 27 27 28 29 29 29 30 31 32 33 34 35 35 36 36 37 37 38 38 39 40 39 40 41 41 41 41 40
4 6 8 9 10 12 14 15 14 14 15 18 22 23 26 26 25 25 26 27 28 29 30 30 31 32 34 35 36 36 37 37 38 39 40 41 42 42 42 42 43 44 42 41
3 5 6 7 9 11 13 14 16 16 16 17 20 24 26 25 25 25 25 26 28 29 31 32 32 33 34 35 36 37 37 38 39 40 42 42 43 44 44 43 44 44 43 43
3 4 6 7 8 11 13 14 15 14 14 15 19 23 25 25 25 26 26 27 28 30 32 33 33 34 35 35 36 37 38 38 39 40 41 42 43 44 45 45 46 45 45 44
3 4 6 7 9 10 12 14 14 15 16 14 15 20 24 25 25 26 27 28 29 31 32 34 34 35 36 36 37 38 39 40 40 40 41 42 43 44 45 46 46 45 45 45
3 4 6 7 8 10 12 14 15 15 17 17 16 21 22 23 24 26 27 28 29 31 33 34 35 36 36 36 37 38 38 39 40 40 41 41 43 43 44 45 46 45 45 45
3 3 4 5 7 9 11 13 15 16 18 18 18 23 23 23 24 25 26 28 30 31 32 33 34 35 35 36 36 37 37 38 38 39 40 40 40 41 42 42 42 43 43 44
3 3 3 5 7 8 10 12 13 15 16 19 21 23 23 24 25 26 26 28 29 30 31 32 33 34 34 35 36 36 37 37 38 39 39 39 40 40 40 40 40 40 41 41
4 4 5 7 8 9 10 11 13 14 16 18 20 22 23 24 25 26 26 27 28 29 30 31 31 32 33 34 34 34 35 35 35 36 36 37 38 38 38 38 38 38 38 39
6 5 6 7 8 10 10 12 13 15 16 18 20 21 22 23 24 24 25 26 26 27 28 28 29 30 31 32 32 32 33 33 33 33 33 34 34 34 34 34 35 36 37 37
7 7 7 8 9 10 11 12 14 15 16 18 19 20 21 22 23 24 25 25 26 26 26 27 27 28 29 29 29 30 30 29 30 30 30 30 30 31 32 33 33 34 35 35
7 8 8 9 10 10 12 12 13 15 16 17 18 19 20 20 21 22 23 23 23 24 24 24 24 25 26 27 27 26 26 26 26 27 27 27 28 30 31 32 32 33 33 34
8 9 9 10 11 11 12 12 12 13 13 13 15 17 18 19 20 20 20 20 21 22 22 22 23 23 23 23 23 23 23 24 24 25 26 26 27 28 29 29 30 30 30 30
9 10 11 11 11 12 12 12 11 11 11 13 14 15 16 17 17 18 17 18 19 20 20 20 20 20 21 20 20 21 22 22 23 24 24 25 25 26 26 26 27 28 28 28
10 11 12 13 12 12 13 12 11 11 13 13 13 13 14 14 15 16 15 15 16 16 17 17 17 18 19 20 20 20 21 21 22 22 22 23 23 24 24 24 25 26 26 26
10 12 13 14 13 13 13 13 12 12 13 13 12 12 13 13 13 13 13 12 13 13 14 15 15 16 17 18 18 18 19 19 20 20 20 21 21 22 22 23 23 23 23 23
11 12 14 14 14 14 14 14 13 13 13 13 12 12 12 12 12 12 11 11 11 12 13 14 14 15 16 17 17 17 18 18 18 18 19 20 20 20 21 21 21 21 21 21
11 13 14 15 15 15 15 14 14 13 13 12 12 12 12 12 12 11 11 11 11 11 12 13 14 15 16 16 16 17 17 16 16 17 17 18 19 19 19 19 19 19 19 18
11 13 15 15 15 15 15 14 14 13 12 12 12 12 12 11 11 10 10 10 10 11 11 12 13 14 15 15 15 14 14 14 15 15 16 16 16 16 16 17 17 17 16 15
12 14 15 16 16 15 15 14 14 13 12 12 12 12 11 11 11 10 10 10 10 10 10 11 11 12 12 13 13 13 13 14 14 14 14 14 14 14 14 14 14 14 13 12
Wind_Direction
239 233 228 225 222 222 221 220 221 224 225 226 230 232 232 233 233 234 233 235 238 240 242 245 249 252 253 251 250 249 250 252 253 252 253 256 259 260 261 262 264 267 269 272
241 234 229 226 223 222 220 221 222 225 226 227 231 232 233 235 235 236 236 237 238 241 244 247 249 252 254 254 252 252 254 254 254 255 254 257 261 264 266 266 265 267 269 271
240 235 230 228 225 223 221 220 222 224 226 228 231 235 235 236 237 238 240 240 240 241 244 247 249 252 254 254 255 256 258 258 258 259 261 266 268 268 267 268 268 270 268 270
242 237 233 229 227 225 224 223 224 225 226 231 230 234 239 238 240 241 243 245 245 245 246 247 250 252 253 255 256 256 259 262 264 264 265 265 267 270 273 275 274 277 280 277
243 236 230 227 227 224 223 223 224 226 227 230 232 231 242 241 242 243 244 246 246 247 247 248 250 251 252 253 255 257 259 263 266 267 268 268 268 270 274 277 278 280 283 280
244 236 229 225 225 225 221 220 224 227 229 232 234 235 242 243 244 246 246 246 247 248 248 248 249 250 252 253 255 257 261 264 266 268 270 273 275 277 279 281 281 282 284 282
259 247 232 223 221 222 218 216 222 228 231 235 238 239 242 245 246 248 248 248 249 250 250 250 249 250 251 254 256 258 261 263 265 269 274 277 279 280 279 281 285 288 287 285
253 252 240 227 221 222 221 216 214 224 230 237 243 242 245 248 248 248 248 248 248 249 251 252 253 253 254 255 257 260 263 265 268 271 274 277 279 280 281 282 284 288 288 289
248 246 241 232 225 220 222 221 224 226 231 238 243 245 248 248 249 249 248 248 248 249 251 254 256 256 257 258 259 262 265 267 270 273 274 276 278 280 281 283 285 286 286 288
246 237 240 234 228 225 223 229 231 232 240 245 251 252 253 252 251 251 251 250 250 250 252 255 257 259 260 261 263 265 267 270 272 273 275 277 278 280 281 282 284 284 285 286
245 240 250 246 236 232 232 234 236 237 238 242 252 254 254 255 254 253 253 253 253 253 255 257 259 261 263 265 267 268 270 272 273 274 276 277 277 278 279 281 282 282 282 283
257 253 256 258 251 241 240 241 242 244 247 245 248 259 257 258 257 256 255 255 256 258 259 261 261 263 265 267 269 270 271 272 273 274 275 276 277 278 278 278 279 278 279 279
289 270 278 280 268 253 249 249 248 247 249 252 254 261 261 260 259 259 259 259 260 261 262 264 265 266 267 269 270 270 270 272 273 273 274 276 277 277 277 277 277 278 279 279
313 292 271 266 268 267 262 259 256 255 257 257 257 260 263 262 263 263 263 263 264 264 265 267 267 268 269 269 269 270 271 273 273 273 274 275 277 277 277 276 277 278 278 279
334 313 297 288 282 278 272 269 265 262 261 261 262 264 265 266 267 266 266 267 268 268 269 270 269 270 270 271 271 271 272 272 273 273 273 275 276 276 277 278 278 280 280 281
349 335 315 302 294 287 282 279 277 274 272 269 268 269 269 271 269 269 269 270 271 270 271 272 271 271 271 272 272 272 271 272 272 272 273 275 276 276 278 280 282 283 285 287
350 343 332 321 311 301 292 288 284 281 278 273 271 272 272 273 271 270 269 270 272 271 270 269 269 270 271 272 272 270 270 270 272 273 273 275 277 279 282 283 283 284 287 288
352 346 338 329 322 313 307 298 291 285 283 278 276 276 276 276 273 272 272 271 271 273 269 268 269 270 269 269 270 271 273 272 273 275 276 276 278 281 283 284 286 288 290 291
356 350 344 339 331 322 318 311 302 296 290 287 283 280 279 279 278 274 272 269 269 268 266 267 269 270 271 271 273 274 276 277 278 280 280 281 284 286 288 289 291 292 293 294
358 355 351 345 338 329 326 321 314 303 298 294 292 289 288 286 282 278 272 268 269 268 267 269 273 275 275 277 276 276 279 281 283 284 286 287 288 289 290 292 292 293 295 296
358 356 353 349 343 338 333 329 324 316 311 307 301 297 297 294 289 285 279 274 273 273 274 274 276 277 279 278 279 281 283 284 285 286 288 290 292 293 293 294 295 296 297 298
355 353 352 350 348 344 338 333 328 321 315 312 308 305 303 301 297 291 288 286 283 280 278 279 280 281 283 284 285 285 285 285 286 288 291 294 296 297 299 299 299 299 299 300
353 352 350 350 347 342 339 335 332 326 322 319 317 315 313 310 307 303 297 291 290 288 284 282 284 286 286 285 286 286 287 288 290 291 293 296 298 301 302 302 302 302 302 302
352 351 350 350 347 343 342 340 338 334 329 325 323 320 317 315 313 309 303 298 295 294 291 289 289 290 290 289 289 291 292 293 293 294 297 299 301 302 303 304 304 305 304 304
351 352 352 352 350 347 346 344 342 339 336 333 329 327 325 321 317 316 313 310 307 303 301 299 297 295 295 294 294 294 295 295 297 299 301 303 303 304 304 305 306 307 307 307
350 351 352 352 350 349 348 347 347 345 343 341 340 338 336 333 330 326 322 320 319 316 312 308 307 306 305 305 303 300 299 298 299 301 304 306 307 308 309 310 311 312 313 315
Height
5793 5796 5797 5799 5802 5806 5809 5813 5816 5819 5823 5827 5830 5833 5836 5839 5842 5845 5848 5851 5854 5856 5858 5860 5862 5863 5865 5866 5867 5867 5868 5868 5868 5868 5868 5868 5868 5867 5866 5865 5865 5863 5863 5862
5791 5792 5793 5795 5798 5801 5805 5808 5812 5815 5819 5822 5826 5829 5832 5835 5837 5840 5843 5846 5849 5851 5853 5855 5857 5859 5860 5861 5862 5862 5863 5863 5863 5863 5863 5862 5862 5861 5860 5859 5857 5857 5856 5855
5786 5788 5789 5792 5795 5798 5801 5804 5808 5811 5814 5818 5822 5825 5827 5830 5832 5835 5838 5841 5843 5846 5848 5850 5851 5853 5854 5855 5856 5857 5857 5857 5857 5857 5857 5856 5855 5855 5854 5853 5851 5849 5849 5848
5783 5784 5786 5788 5791 5794 5797 5800 5803 5806 5811 5814 5818 5822 5821 5824 5827 5830 5832 5835 5837 5840 5842 5844 5845 5847 5848 5849 5850 5851 5851 5851 5851 5851 5851 5850 5849 5848 5847 5845 5844 5843 5841 5840
5780 5781 5783 5785 5788 5790 5793 5796 5800 5803 5806 5810 5812 5817 5817 5818 5821 5824 5826 5828 5831 5833 5835 5837 5839 5840 5842 5843 5844 5844 5844 5845 5845 5844 5844 5843 5842 5841 5839 5838 5836 5835 5833 5832
5778 5778 5780 5782 5784 5787 5790 5793 5796 5799 5803 5806 5808 5812 5813 5812 5815 5818 5820 5822 5824 5826 5828 5830 5831 5833 5835 5836 5837 5838 5838 5838 5838 5837 5836 5835 5834 5833 5832 5830 5828 5827 5825 5823
5777 5777 5778 5780 5782 5784 5787 5791 5796 5799 5801 5804 5803 5806 5807 5807 5810 5812 5814 5816 5818 5820 5821 5823 5824 5826 5827 5829 5830 5830 5830 5830 5830 5829 5829 5828 5826 5824 5823 5822 5820 5818 5816 5814
5776 5778 5777 5778 5780 5782 5785 5788 5794 5798 5800 5800 5798 5800 5801 5802 5804 5806 5808 5809 5811 5813 5814 5816 5817 5819 5820 5821 5822 5822 5822 5822 5822 5821 5820 5819 5818 5816 5814 5813 5812 5810 5808 5806
5775 5776 5775 5776 5777 5780 5782 5785 5788 5791 5792 5794 5795 5794 5795 5797 5798 5800 5802 5803 5805 5806 5808 5809 5810 5811 5812 5813 5813 5814 5814 5814 5814 5813 5812 5811 5809 5808 5806 5804 5803 5801 5799 5797
5772 5773 5774 5774 5775 5777 5780 5781 5784 5787 5789 5791 5791 5790 5791 5791 5792 5794 5795 5797 5798 5799 5801 5801 5802 5803 5804 5804 5805 5805 5805 5805 5804 5803 5803 5801 5800 5798 5797 5795 5793 5792 5789 5787
5771 5772 5773 5773 5774 5775 5777 5779 5780 5782 5784 5786 5788 5788 5784 5785 5786 5787 5789 5790 5791 5792 5793 5794 5794 5795 5795 5795 5795 5795 5795 5795 5794 5793 5793 5791 5790 5789 5787 5785 5783 5782 5780 5778
5770 5771 5771 5771 5772 5772 5773 5774 5776 5778 5778 5779 5782 5782 5778 5778 5779 5780 5781 5782 5783 5784 5784 5785 5785 5786 5786 5786 5786 5786 5785 5785 5784 5783 5782 5781 5780 5778 5777 5775 5773 5771 5769 5767
5769 5770 5770 5770 5771 5771 5770 5770 5771 5772 5773 5774 5776 5776 5772 5772 5772 5773 5773 5774 5774 5775 5775 5776 5776 5776 5777 5777 5776 5776 5775 5775 5774 5773 5772 5771 5769 5768 5766 5764 5762 5760 5758 5756
5768 5768 5769 5769 5768 5767 5767 5767 5767 5768 5769 5769 5769 5767 5766 5766 5766 5766 5766 5766 5766 5766 5767 5767 5767 5767 5767 5767 5766 5766 5766 5765 5764 5763 5762 5760 5759 5757 5755 5753 5752 5750 5747 5745
5767 5767 5766 5765 5765 5764 5764 5763 5763 5763 5763 5763 5762 5761 5760 5760 5759 5759 5759 5759 5759 5758 5759 5759 5758 5758 5758 5757 5757 5756 5756 5755 5754 5753 5752 5750 5749 5747 5745 5744 5742 5739 5737 5734
5766 5765 5764 5763 5762 5761 5760 5759 5758 5758 5757 5756 5755 5755 5754 5753 5753 5752 5752 5752 5751 5750 5750 5750 5750 5749 5749 5748 5748 5747 5746 5745 5744 5743 5742 5741 5739 5738 5736 5734 5732 5730 5727 5725
5765 5764 5763 5761 5760 5758 5757 5756 5754 5753 5751 5751 5750 5749 5747 5746 5746 5745 5745 5744 5744 5743 5742 5742 5742 5741 5740 5740 5739 5739 5738 5736 5735 5734 5733 5732 5731 5729 5727 5725 5723 5721 5718 5715
5764 5762 5761 5759 5758 5756 5756 5752 5750 5748 5747 5745 5744 5743 5741 5741 5740 5739 5738 5737 5736 5735 5735 5734 5734 5733 5733 5732 5731 5730 5729 5728 5727 5726 5725 5723 5722 5721 5719 5717 5714 5712 5709 5706
5763 5762 5760 5758 5755 5753 5751 5748 5746 5744 5742 5741 5739 5738 5736 5735 5734 5733 5732 5731 5730 5729 5728 5728 5727 5726 5726 5725 5724 5723 5722 5721 5720 5719 5717 5716 5714 5712 5710 5708 5706 5703 5700 5697
5762 5760 5759 5756 5754 5751 5749 5746 5743 5742 5739 5737 5735 5733 5731 5730 5729 5728 5726 5725 5724 5723 5722 5722 5721 5720 5719 5718 5717 5716 5715 5715 5713 5712 5711 5709 5707 5705 5703 5701 5698 5696 5693 5690
5761 5759 5757 5754 5752 5749 5746 5743 5741 5740 5737 5733 5731 5729 5727 5725 5725 5723 5721 5720 5719 5718 5717 5716 5715 5714 5714 5713 5712 5710 5709 5708 5707 5706 5704 5702 5701 5699 5696 5694 5691 5688 5686 5683
5761 5758 5755 5752 5750 5749 5743 5740 5738 5736 5732 5730 5728 5725 5723 5722 5720 5718 5716 5715 5715 5714 5712 5711 5710 5710 5709 5707 5706 5705 5704 5703 5702 5700 5698 5696 5695 5692 5690 5687 5684 5682 5679 5676
5759 5757 5754 5752 5750 5745 5741 5738 5735 5732 5729 5727 5725 5722 5720 5718 5716 5715 5713 5712 5711 5710 5708 5707 5706 5705 5704 5703 5702 5701 5699 5698 5696 5695 5693 5691 5689 5686 5684 5681 5679 5676 5673 5670
5758 5755 5752 5749 5746 5742 5739 5735 5732 5729 5727 5724 5722 5719 5717 5715 5713 5712 5710 5708 5707 5706 5705 5703 5702 5701 5700 5698 5697 5696 5694 5692 5691 5689 5688 5685 5683 5681 5679 5676 5673 5670 5668 5665
5757 5754 5751 5748 5744 5740 5737 5734 5731 5727 5725 5722 5719 5717 5715 5713 5711 5709 5707 5706 5704 5703 5702 5700 5699 5697 5696 5694 5692 5691 5690 5688 5687 5685 5683 5681 5679 5676 5674 5671 5668 5666 5663 5661
5755 5753 5750 5747 5743 5740 5736 5732 5729 5726 5723 5720 5718 5715 5713 5711 5709 5707 5705 5704 5702 5701 5699 5697 5696 5694 5692 5690 5689 5687 5686 5684 5683 5681 5679 5677 5674 5672 5669 5667 5664 5662 5660 5657